Location: �chenoz-la-M�line
(47.6009°N, 6.1354°E)
Time: 13:15:27
(UTC+00:00)

Cosmos 1689 Rocket - Pass Details

Date: 27 January 2021
Orbit: 353 x 367 km, 97.5° (Epoch: 03 March)

Event Time Altitude Azimuth Distance (km) Brightness Sun altitude
Rises 05:58:36 0° 197° (SSW) 2,216 5.9 -11.8°
Reaches altitude 10° 06:00:54 10° 216° (SW) 1,369 4.6 -11.4°
Maximum altitude 06:03:05 19° 265° (W) 957 3.5 -11.0°
Enters shadow 06:03:39 18° 281° (W) 991 3.5 -10.9°
